Tracking 22079 objects as of 5-Dec-2020
HD Live streaming from Space Station
objects crossing your sky now

SL-8 R/B

Track SL-8 R/B now!
10-day predictions


NORAD ID: 11511
Int'l Code: 1979-078B
Perigee: 765.4 km
Apogee: 786.3 km
Inclination: 74.0 °
Period: 100.2 minutes
Semi major axis: 7146 km
RCS: 4.942 m2 (large)
Launch date: August 28, 1979
Source: Commonwealth of Independent States (former USSR) (CIS)
Launch site: PLESETSK MISSILE AND SPACE COMPLEX (PKMTR)

Note: This is a ROCKET BODY
aabbcc
Your satellite tracking list
Your tracking list is empty




NASA's NSSDC Master Catalog

Two Line Element Set (TLE):
1 11511U 79078B   20339.64845688  .00000007  00000-0  11192-4 0  9991
2 11511  74.0344 147.2827 0014594  80.9919 279.2886 14.36908047160228
Source of the keplerian elements: AFSPC